YAOGAN 17B

Satellite information

Favourite Embed

Satellite Type and Status

PAYLOADIN ORBIT

Key statistics

Satellite YAOGAN 17B at a glance.

Uptime

4328

Days in orbit

Revolutions

≈ 13.5

Per day

Orbit

LEO

Low Earth Orbit

Inclination

63.4

Latest

Satellite identification and parameters

Extended collection of information and parameters for YAOGAN 17B.

Object identification

Identified? True

Debris? False

Object name: YAOGAN 17B

International designator: 2013-046B

Object number (NORAD): 39240

Object ID (CCSDS): 39240

Country: PEOPLES REPUBLIC OF CHINA (PRC)

Current information (Y/N): Y

RCS size: LARGE

Orbital parameters

Period: 107.03 minutes

Inclination: 63.3899 deg

SMA: 7467.313 km

Apoapsis: 1384.775 km

Periapsis: 793.581 km

RAAN: 258.4809 deg

Eccentricy: 0.0395855

Argument of periapsis: 9.8496 deg

Mean anomaly: 351.0005 deg

Mean motion: 13.45414901 rev/day

Mean motion (dot): -0.00000051 rev/day2

B* drag term: 0.00004204 1/REarth

Two-line elements (TLE)

Creation date: July 8, 2025, 2:27 a.m.

Reference frame: TEME

Reference center: EARTH

Epoch: July 7, 2025, 10:15 p.m. UTC

TLE line 0: 0 YAOGAN 17B

TLE line 1: 1 39240U 13046B 25188.92775167 -.00000051 00000-0 42040-4 0 9991

TLE line 2: 2 39240 63.3899 258.4809 0395855 9.8496 351.0005 13.45414901582017

Live tracking on map

Real-time ground track for satellite YAOGAN 17B.

In-orbit conjunctions

There are no conjunctions computed for YAOGAN 17B, at the moment. Check back to stay up to date, as we update our databases every day.

Go to all conjunctions

Associated space launch

YAOGAN 17B was lifted into orbit during the mission ‘Long March 4C | Yaogan 17A, B & C’, on board a Long March 4C space rocket.

The launch took place on Sept. 1, 2013, 7:16 p.m. from Launch Area 4 (SLS-2 / 603).

For more information about the launch, click the button.

Launch to space Long March 4C | Yaogan 17A, B & C
Long March 4C | Yaogan 17A, B & C

Agency: N/A

Status: Launch Successful

Launch date: Sept. 1, 2013, 7:16 p.m. UTC

Rocket: Long March 4C

Launch pad: Launch Area 4 (SLS-2 / 603)

Location: Jiuquan Satellite Launch Center, People's Republic of China

...

Latest news about this satellite

There are no fresh news available about this satellite. Check back as we update our databases every day.


Newsletter sign-up

Weekly statistics, charts and insights to help you stay on top of the space industry.